Regional Weather Roundup
Issued by NWS Goodland, KS

Home | Current Version | Previous Version | Graphics & Text | Print | Product List | Glossary On
Versions: 1 2 3 4 5 6 7 8 9 10 11 12 13 14 15 16 17 18 19 20 21 22 23 24 25 26 27 28 29 30 31 32 33 34 35 36 37 38 39 40 41 42 43 44 45 46 47 48 49 50
297
ASUS43 KGLD 032208
RWRGLD

GOODLAND FORECAST AREA HOURLY WEATHER ROUNDUP
NATIONAL WEATHER SERVICE GOODLAND KS
300 PM MST SAT DEC 03 2016

...OFFICIAL OBSERVATIONS...

CITY           SKY/WX    TMP DP  RH WIND       PRES   REMARKS
GOODLAND KS    SUNNY     40  28  62 S7        29.97S
HILL CITY KS   CLOUDY    33  32  96 SE7       30.07S FOG
IMPERIAL NEB   SUNNY     44  24  45 S10       29.96F
MCCOOK NEB     CLOUDY    38  31  76 S9        30.01F
AKRON CO       CLOUDY    42  17  36 N7        29.95R
BURLINGTON CO  SUNNY     43  23  45 SW7       29.95F
LIMON CO       SUNNY     42   9  25 N10       29.94R
$$

...UNOFFICIAL OBSERVATIONS...

CITY           SKY/WX    TMP DP  RH WIND       PRES   REMARKS
COLBY KS       CLOUDY    37  36  93 S7        30.01S
LENORA KS        N/A     33  32  96 MISG        N/A
NORTON KS      CLOUDY    34  30  86 SE5       30.04F
SHARON SPRINGS   N/A     40  31  71 SW5         N/A
TRENTON NEB      N/A     43  32  65 S6          N/A
KIT CARSON CO    N/A     43  28  56 CALM        N/A
YUMA CO        FAIR      41  18  38 CALM      29.95F
$$




USA.gov is the U.S. government's official web portal to all federal, state and local government web resources and services.